sat.trackr.live / text

‹ back to catalog

2024-153F

NORAD 60750 · 2024-153F

PAYLOAD ACTIVE UNKNOWN

§ Identity

Operator
Country
PRC
Launch date
2024-08-29
Launch site
YSLA
Launch vehicle
Mass (kg)
RCS (m²)

External: N2YO · Heavens-Above · Gunter

§ Orbital elements

Epoch: 2026-09-22T23:12:46.878336Z

Period
94.23 min
Inclination
97.6831°
Eccentricity
0.0004099
Mean motion
15.28250499 rev/d
Perigee alt
478.2 km
Apogee alt
483.9 km
Semi-major
6,859.2 km
B*
3.7960e-4
RAAN
45.3249°
Arg perigee
262.0756°
Mean anomaly
98.0017°
Rev number
11,472

§ Raw data

2024-153F1 60750U 24153F   26265.96720924  .00010376  00000+0  37960-3 0  99972 60750  97.6831  45.3249 0004099 262.0756  98.0017 15.28250499114726

JSON: /api/v1/satellites/60750 · /tle

For live sub-satellite position, see the globe view (requires WebGL).

§ Visibility from observer

Set your observer location to see the next 7 days of passes ≥ 10°. The values pass through the URL so the page stays shareable.

No JS? Fill the form by hand. The geolocation button needs JavaScript.